<?xml version="1.0"?>
<gpx xmlns="http://www.topografix.com/GPX/1/1" xmlns:xsi="http://www.w3.org/2001/XMLSchema-instance" version="1.1" creator="GPX RubyGem 1.0.0 -- http://dougfales.github.io/gpx/" xsi:schemaLocation="http://www.topografix.com/GPX/1/1 http://www.topografix.com/GPX/1/1/gpx.xsd">
  <metadata>
    <name/>
    <time>2026-05-09T04:01:27+00:00</time>
    <bound minlat="90.0" minlon="180.0" maxlat="-90.0" maxlon="-180.0"/>
  </metadata>
  <trk>
    <name/>
    <trkseg>
      <trkpt lat="43.309836" lon="3.117835">
        <time>1970-01-01T00:00:00+00:00</time>
        <ele>87.0</ele>
      </trkpt>
      <trkpt lat="43.309862" lon="3.118024">
        <time>1970-01-01T00:00:00+00:00</time>
        <ele>88.0</ele>
      </trkpt>
      <trkpt lat="43.309922" lon="3.118102">
        <time>1970-01-01T00:00:00+00:00</time>
        <ele>90.0</ele>
      </trkpt>
      <trkpt lat="43.309982" lon="3.117929">
        <time>1970-01-01T00:00:00+00:00</time>
        <ele>91.0</ele>
      </trkpt>
      <trkpt lat="43.310002" lon="3.117884">
        <time>1970-01-01T00:00:00+00:00</time>
        <ele>91.0</ele>
      </trkpt>
      <trkpt lat="43.310006" lon="3.117866">
        <time>1970-01-01T00:00:00+00:00</time>
        <ele>91.0</ele>
      </trkpt>
      <trkpt lat="43.310032" lon="3.117852">
        <time>1970-01-01T00:00:00+00:00</time>
        <ele>92.0</ele>
      </trkpt>
      <trkpt lat="43.310064" lon="3.117798">
        <time>1970-01-01T00:00:00+00:00</time>
        <ele>93.0</ele>
      </trkpt>
      <trkpt lat="43.3102" lon="3.11774">
        <time>1970-01-01T00:00:00+00:00</time>
        <ele>95.0</ele>
      </trkpt>
      <trkpt lat="43.310242" lon="3.117686">
        <time>1970-01-01T00:00:00+00:00</time>
        <ele>96.0</ele>
      </trkpt>
      <trkpt lat="43.310251" lon="3.117611">
        <time>1970-01-01T00:00:00+00:00</time>
        <ele>97.0</ele>
      </trkpt>
      <trkpt lat="43.310334" lon="3.11746">
        <time>1970-01-01T00:00:00+00:00</time>
        <ele>100.0</ele>
      </trkpt>
      <trkpt lat="43.310312" lon="3.117413">
        <time>1970-01-01T00:00:00+00:00</time>
        <ele>102.0</ele>
      </trkpt>
      <trkpt lat="43.310352" lon="3.11741">
        <time>1970-01-01T00:00:00+00:00</time>
        <ele>102.0</ele>
      </trkpt>
      <trkpt lat="43.310417" lon="3.117379">
        <time>1970-01-01T00:00:00+00:00</time>
        <ele>102.0</ele>
      </trkpt>
      <trkpt lat="43.310547" lon="3.11723">
        <time>1970-01-01T00:00:00+00:00</time>
        <ele>105.0</ele>
      </trkpt>
      <trkpt lat="43.310605" lon="3.117101">
        <time>1970-01-01T00:00:00+00:00</time>
        <ele>108.0</ele>
      </trkpt>
      <trkpt lat="43.310623" lon="3.117017">
        <time>1970-01-01T00:00:00+00:00</time>
        <ele>110.0</ele>
      </trkpt>
      <trkpt lat="43.310623" lon="3.117017">
        <time>1970-01-01T00:00:00+00:00</time>
        <ele>110.0</ele>
      </trkpt>
      <trkpt lat="43.310605" lon="3.117101">
        <time>1970-01-01T00:00:00+00:00</time>
        <ele>108.0</ele>
      </trkpt>
      <trkpt lat="43.310547" lon="3.11723">
        <time>1970-01-01T00:00:00+00:00</time>
        <ele>105.0</ele>
      </trkpt>
      <trkpt lat="43.310417" lon="3.117379">
        <time>1970-01-01T00:00:00+00:00</time>
        <ele>102.0</ele>
      </trkpt>
      <trkpt lat="43.310352" lon="3.11741">
        <time>1970-01-01T00:00:00+00:00</time>
        <ele>102.0</ele>
      </trkpt>
      <trkpt lat="43.310312" lon="3.117413">
        <time>1970-01-01T00:00:00+00:00</time>
        <ele>102.0</ele>
      </trkpt>
      <trkpt lat="43.310334" lon="3.11746">
        <time>1970-01-01T00:00:00+00:00</time>
        <ele>100.0</ele>
      </trkpt>
      <trkpt lat="43.310251" lon="3.117611">
        <time>1970-01-01T00:00:00+00:00</time>
        <ele>97.0</ele>
      </trkpt>
      <trkpt lat="43.310242" lon="3.117686">
        <time>1970-01-01T00:00:00+00:00</time>
        <ele>96.0</ele>
      </trkpt>
      <trkpt lat="43.3102" lon="3.11774">
        <time>1970-01-01T00:00:00+00:00</time>
        <ele>95.0</ele>
      </trkpt>
      <trkpt lat="43.310064" lon="3.117798">
        <time>1970-01-01T00:00:00+00:00</time>
        <ele>93.0</ele>
      </trkpt>
      <trkpt lat="43.310032" lon="3.117852">
        <time>1970-01-01T00:00:00+00:00</time>
        <ele>92.0</ele>
      </trkpt>
      <trkpt lat="43.310006" lon="3.117866">
        <time>1970-01-01T00:00:00+00:00</time>
        <ele>91.0</ele>
      </trkpt>
      <trkpt lat="43.310002" lon="3.117884">
        <time>1970-01-01T00:00:00+00:00</time>
        <ele>91.0</ele>
      </trkpt>
      <trkpt lat="43.309982" lon="3.117929">
        <time>1970-01-01T00:00:00+00:00</time>
        <ele>91.0</ele>
      </trkpt>
      <trkpt lat="43.309922" lon="3.118102">
        <time>1970-01-01T00:00:00+00:00</time>
        <ele>90.0</ele>
      </trkpt>
      <trkpt lat="43.309862" lon="3.118024">
        <time>1970-01-01T00:00:00+00:00</time>
        <ele>88.0</ele>
      </trkpt>
      <trkpt lat="43.309836" lon="3.117835">
        <time>1970-01-01T00:00:00+00:00</time>
        <ele>87.0</ele>
      </trkpt>
    </trkseg>
  </trk>
</gpx>
